FW4399 Weather Reports


time (UTC)temp
F
wind
direction
speed
knots
gust
knots
rain 1hr
in
rain 24hr
in
rain mn
in
humidity
%
barometer
mb
20260507064603 48 98 1.7 0.0 0.00 0.00 0.01 95 1012.0
20260507063135 46 69 0.9 0.0 0.00 0.00 0.01 95 1011.6
20260507061540 43 33 0.0 0.0 0.00 0.00 0.01 95 1011.5
20260507060038 42 34 0.9 0.0 0.00 0.00 0.01 94 1011.5
20260507054646 41 4 0.9 0.0 0.00 0.00 0.01 94 1011.4
20260507053142 41 332 0.9 0.0 0.00 0.00 0.01 94 1011.3
20260507051628 40 331 0.0 0.0 0.00 0.00 0.01 94 1011.2
20260507050026 40 331 0.0 0.0 0.00 0.00 0.01 93 1011.1
20260507044603 40 331 0.9 0.0 0.00 0.00 0.01 93 1011.0
20260507043135 40 13 2.6 0.0 0.00 0.00 0.01 93 1011.0
20260507041526 40 15 1.7 0.0 0.00 0.00 0.01 93 1011.0
20260507040126 40 15 1.7 0.0 0.00 0.00 0.01 93 1011.0
20260507034525 40 15 1.7 0.0 0.00 0.00 0.01 92 1010.8
20260507033039 41 15 2.6 0.0 0.00 0.00 0.01 92 1010.7
20260507031640 41 121 1.7 0.0 0.00 0.00 0.01 92 1010.7
20260507030138 42 125 0.0 0.0 0.00 0.00 0.01 92 1010.6
20260507024649 42 125 1.7 0.0 0.00 0.00 0.01 92 1010.6
20260507023011 43 127 0.0 0.0 0.00 0.00 0.01 92 1010.6
20260507021501 43 127 0.9 0.0 0.00 0.00 0.01 92 1010.6
20260507020027 43 127 1.7 0.0 0.00 0.00 0.01 92 1010.5
20260507014541 43 129 0.0 0.0 0.00 0.00 0.01 92 1010.6
20260507013142 44 129 0.0 0.0 0.00 0.00 0.01 92 1010.6
20260507011639 44 129 0.0 0.0 0.00 0.00 0.01 92 1010.6
20260507010037 44 129 0.0 0.0 0.00 0.00 0.01 92 1010.7
20260507004623 45 129 0.9 0.0 0.00 0.00 0.01 92 1010.6
20260507003012 45 129 2.6 0.0 0.00 0.00 0.01 92 1010.6
20260507001547 45 139 1.7 0.0 0.00 0.00 0.01 92 1010.6
20260507000141 45 51 0.0 0.0 0.00 0.00 0.01 92 1010.9
20260506234537 45 51 0.0 0.0 0.00 0.00 0.00 92 1010.9
20260506233128 45 51 0.0 0.0 0.00 0.00 0.00 92 1011.0
20260506231527 45 51 0.9 0.0 0.00 0.00 0.00 91 1011.0
20260506230053 45 51 1.7 0.0 0.00 0.00 0.00 91 1011.0
20260506224551 45 53 1.7 0.0 0.00 0.00 0.06 91 1010.9
20260506223129 45 49 1.7 0.0 0.00 0.00 0.06 90 1011.0
20260506221646 45 43 2.6 0.0 0.00 0.00 0.04 90 1010.9
20260506220006 45 30 3.5 0.0 0.00 0.00 0.03 89 1010.9
20260506214648 45 27 3.5 0.0 0.00 0.00 0.02 88 1010.8
20260506213102 45 31 3.5 0.0 0.00 0.00 0.02 87 1010.8
20260506211620 45 12 2.6 0.0 0.00 0.00 0.02 87 1010.7
20260506210113 45 20 3.5 0.0 0.00 0.00 0.02 87 1010.5
20260506204549 44 24 4.3 0.0 0.00 0.00 0.02 86 1010.5
20260506203018 44 7 4.3 0.0 0.00 0.00 0.02 87 1010.4
20260506201600 44 13 3.5 0.0 0.00 0.00 0.02 87 1010.3
20260506200052 44 1 4.3 0.0 0.00 0.00 0.02 87 1010.5
20260506194554 44 351 5.2 0.0 0.00 0.00 0.02 87 1010.4
20260506193135 44 3 5.2 0.0 0.00 0.00 0.02 87 1010.3
20260506191613 45 32 6.1 0.0 0.00 0.00 0.02 87 1010.3
20260506190136 45 1 7.0 0.0 0.00 0.00 0.02 87 1010.2
20260506184608 45 342 7.8 0.0 0.00 0.00 0.02 88 1010.2
20260506183105 45 0 7.0 0.0 0.00 0.00 0.02 88 1010.1
20260506181638 45 13 8.7 0.0 0.00 0.00 0.02 87 1010.0
20260506180041 45 4 8.7 0.0 0.00 0.00 0.02 88 1009.9
20260506174610 46 351 8.7 0.0 0.00 0.00 0.02 89 1009.7
20260506173034 46 11 8.7 0.0 0.00 0.00 0.02 89 1009.6
20260506171623 46 16 7.8 0.0 0.00 0.00 0.02 89 1009.5
20260506170137 46 357 8.7 0.0 0.00 0.00 0.02 88 1009.5
20260506164640 46 356 8.7 0.0 0.00 0.00 0.02 88 1009.5
20260506163101 47 11 8.7 0.0 0.00 0.00 0.02 89 1009.5
20260506161600 47 359 7.8 0.0 0.00 0.00 0.02 89 1009.4
20260506160020 46 6 7.8 0.0 0.00 0.00 0.02 89 1009.5
20260506154535 47 344 7.8 0.0 0.00 0.00 0.02 90 1009.5
20260506153145 47 359 8.7 0.0 0.00 0.00 0.02 90 1009.5
20260506151644 47 25 7.8 0.0 0.00 0.00 0.02 89 1009.5
20260506150129 47 359 7.8 0.0 0.00 0.00 0.02 89 1009.5
20260506144531 48 345 7.0 0.0 0.00 0.00 0.01 87 1009.5
20260506143026 49 23 7.0 0.0 0.00 0.00 0.00 85 1009.5
20260506141553 50 20 8.7 0.0 0.00 0.00 0.00 81 1009.5
20260506140005 52 357 8.7 0.0 0.00 0.00 0.00 75 1009.5
20260506134531 53 18 9.6 0.0 0.00 0.00 0.00 74 1009.6
20260506133044 54 30 7.8 0.0 0.00 0.00 0.00 70 1009.5
20260506131643 54 8 9.6 0.0 0.00 0.00 0.00 69 1009.5
20260506130014 56 352 9.6 0.0 0.00 0.00 0.00 63 1009.4
20260506124550 56 359 9.6 0.0 0.00 0.00 0.00 61 1009.3
20260506123131 59 352 7.8 0.0 0.00 0.00 0.00 56 1009.1
20260506121522 57 350 7.8 0.0 0.00 0.00 0.00 59 1009.0
20260506120043 56 338 7.8 0.0 0.00 0.00 0.00 59 1009.1
20260506114532 57 345 9.6 0.0 0.00 0.00 0.00 58 1009.2
20260506113100 55 1 8.7 0.0 0.00 0.00 0.00 61 1009.3
20260506111633 54 3 8.7 0.0 0.00 0.00 0.00 62 1009.4
20260506110133 54 1 9.6 0.0 0.00 0.00 0.00 63 1009.4
20260506104625 54 4 8.7 0.0 0.00 0.00 0.00 64 1009.3
20260506103136 54 30 7.8 0.0 0.00 0.00 0.00 66 1009.1
20260506101538 55 344 10.4 0.0 0.00 0.00 0.00 63 1009.0
20260506100056 53 359 11.3 0.0 0.00 0.00 0.00 66 1009.0
20260506094629 53 0 8.7 0.0 0.00 0.00 0.00 68 1009.1
20260506093132 52 1 8.7 0.0 0.00 0.00 0.00 69 1009.0
20260506091632 51 13 9.6 0.0 0.00 0.00 0.00 70 1009.0
20260506090103 51 1 8.7 0.0 0.00 0.00 0.00 74 1009.0
20260506084627 50 0 7.8 0.0 0.00 0.00 0.00 78 1009.0
20260506083019 49 359 7.0 0.0 0.00 0.00 0.00 80 1008.9
20260506081628 48 349 7.8 0.0 0.00 0.00 0.00 82 1008.9
20260506080130 48 351 9.6 0.0 0.00 0.00 0.00 82 1008.9
20260506073012 46 326 8.7 0.0 0.00 0.00 0.00 86 1008.9
20260506071634 45 338 8.7 0.0 0.00 0.00 0.00 87 1008.8
20260506070131 44 334 7.0 0.0 0.00 0.00 0.00 88 1008.7